Fredericksburg, VA

11:52 AM EST on December 11, 2019 (GMT -0500)
Shannon

Weather History for KEZF - October, 2019

Change the Weather History Date:

Sunday, October 13, 2019

  Actual Average (WUND) Record (WUND)
Temperature  
Mean Temperature 58 °F -  
Max Temperature 61 °F - - (-1)
Min Temperature 54 °F - - (-1)
Degree Days  
Heating Degree Days 8    
Growing Degree Days 8 (Base 50)    
Moisture  
Dew Point 50 °F    
Average Humidity 76    
Maximum Humidity 100    
Minimum Humidity 57    
Precipitation  
Precipitation 0.13 in - - ()
Sea Level Pressure  
Sea Level Pressure 30.06 in    
Wind  
Wind Speed 3 mph ()    
Max Wind Speed 7 mph    
Max Gust Speed -    
Visibility 9.7 miles    
Events Rain    
Averages and records for this station are not official NWS values.
T = Trace of Precipitation, MM = Missing Value Source: Averaged Metar Reports

Daily Weather History Graph

Daily Weather History Graph

Search for Another Location

Airport or City:

Astronomy

Oct. 13, 2019 Rise Set
Actual Time 7:16 AM EDT 6:35 PM EDT
Civil Twilight 6:49 AM EDT 7:01 PM EDT
Nautical Twilight 6:19 AM EDT 7:32 PM EDT
Astronomical Twilight 5:48 AM EDT 8:02 PM EDT
Moon 6:55 PM EDT (10/13) 6:49 AM EDT (10/13)
Length of Visible Light 12h 11m
Length of Day
11h 18m
Full, 100% of the Moon is Illuminated
Oct 13
Full
Oct 13
Full
Oct 21
Last Quarter
Oct 27
New
Nov 4
First Quarter

Hourly Weather History & Observations

Time (EDT) Temp. Dew Point Humidity Pressure Visibility Wind Dir Wind Speed Gust Speed Precip Events Conditions
12:15 AM 59.0 °F 48.2 °F 67% 30.05 in 10.0 mi NNW 4.6 mph - N/A   Scattered Clouds
12:35 AM 58.3 °F 48.2 °F 69% 30.05 in 10.0 mi NW 4.6 mph - N/A   Scattered Clouds
12:55 AM 58.5 °F 47.3 °F 66% 30.05 in 10.0 mi NNW 3.5 mph - N/A   Mostly Cloudy
1:55 AM 59.0 °F 44.2 °F 58% 30.07 in 10.0 mi North 3.5 mph - N/A   Overcast
2:15 AM 58.3 °F 45.0 °F 61% 30.07 in 7.0 mi NNE 6.9 mph - N/A   Overcast
2:35 AM 58.1 °F 44.2 °F 60% 30.07 in 10.0 mi North 6.9 mph - N/A Rain Light Rain
2:55 AM 57.7 °F 43.9 °F 60% 30.07 in 10.0 mi North 5.8 mph - N/A   Overcast
3:15 AM 57.4 °F 44.1 °F 61% 30.06 in 10.0 mi NNE 3.5 mph - N/A   Overcast
3:35 AM 57.2 °F 43.7 °F 61% 30.07 in 10.0 mi North 5.8 mph - N/A   Overcast
3:55 AM 57.0 °F 43.5 °F 61% 30.07 in 10.0 mi North 5.8 mph - N/A   Overcast
4:15 AM 56.8 °F 43.3 °F 61% 30.07 in 10.0 mi North 4.6 mph - N/A   Overcast
4:35 AM 56.7 °F 43.2 °F 61% 30.07 in 10.0 mi North 6.9 mph - N/A   Overcast
4:55 AM 56.5 °F 43.9 °F 63% 30.08 in 10.0 mi NE 5.8 mph - N/A Rain Light Rain
5:15 AM 55.8 °F 43.7 °F 64% 30.08 in 10.0 mi North 5.8 mph - N/A   Overcast
5:35 AM 55.6 °F 43.3 °F 63% 30.08 in 10.0 mi NNE 4.6 mph - N/A   Overcast
5:55 AM 55.8 °F 43.9 °F 64% 30.09 in 10.0 mi North 4.6 mph - N/A Rain Light Rain
6:15 AM 55.0 °F 44.8 °F 68% 30.11 in 10.0 mi North 4.6 mph - N/A   Overcast
6:35 AM 54.7 °F 45.0 °F 70% 30.10 in 10.0 mi North 3.5 mph - N/A   Overcast
6:55 AM 54.5 °F 44.8 °F 70% 30.11 in 10.0 mi North 4.6 mph - N/A   Overcast
7:15 AM 54.5 °F 44.6 °F 69% 30.10 in 10.0 mi North 3.5 mph - N/A   Overcast
7:35 AM 54.1 °F 44.6 °F 70% 30.11 in 10.0 mi Calm Calm - N/A   Overcast
7:55 AM 54.3 °F 44.8 °F 70% 30.11 in 10.0 mi North 3.5 mph - N/A   Overcast
8:15 AM 54.5 °F 45.5 °F 72% 30.12 in 10.0 mi Calm Calm - N/A   Overcast
8:35 AM 54.9 °F 45.9 °F 72% 30.12 in 7.0 mi Calm Calm - N/A   Mostly Cloudy
8:55 AM 55.4 °F 46.4 °F 72% 30.12 in 10.0 mi Calm Calm - N/A   Overcast
9:15 AM 56.1 °F 46.8 °F 71% 30.12 in 10.0 mi Calm Calm - N/A   Overcast
9:35 AM 57.4 °F 46.9 °F 68% 30.11 in 10.0 mi NE 5.8 mph - N/A   Overcast
9:55 AM 58.1 °F 43.5 °F 58% 30.12 in 10.0 mi NNE 6.9 mph - N/A   Overcast
10:15 AM 58.3 °F 43.9 °F 59% 30.12 in 10.0 mi NNE 4.6 mph - N/A   Overcast
10:35 AM 59.0 °F 43.9 °F 57% 30.12 in 10.0 mi NE 5.8 mph - N/A   Mostly Cloudy
10:55 AM 60.1 °F 44.8 °F 57% 30.11 in 10.0 mi NE 6.9 mph - N/A   Overcast
11:15 AM 59.4 °F 45.1 °F 59% 30.11 in 10.0 mi NE 4.6 mph - N/A   Overcast
11:35 AM 59.4 °F 45.9 °F 61% 30.09 in 10.0 mi NE 4.6 mph - N/A   Overcast
11:55 AM 60.3 °F 45.9 °F 59% 30.10 in 10.0 mi NNW 3.5 mph - N/A   Overcast
12:15 PM 56.7 °F 50.5 °F 80% 30.09 in 2.0 mi NNE 3.5 mph - 0.07 in Rain Heavy Rain
12:35 PM 56.3 °F 50.5 °F 81% 30.09 in 10.0 mi Calm Calm - 0.08 in Rain Light Rain
12:55 PM 57.9 °F 51.8 °F 80% 30.09 in 10.0 mi NNE 3.5 mph - 0.08 in   Overcast
1:15 PM 58.6 °F 50.2 °F 73% 30.08 in 10.0 mi NE 3.5 mph - N/A   Overcast
1:55 PM 59.2 °F 50.4 °F 73% 30.05 in 10.0 mi Calm Calm - N/A   Overcast
2:15 PM 59.7 °F 51.1 °F 73% 30.05 in 10.0 mi Calm Calm - N/A   Overcast
2:35 PM 60.1 °F 51.6 °F 74% 30.04 in 10.0 mi Calm Calm - N/A   Overcast
2:55 PM 61.7 °F 52.7 °F 72% 30.04 in 10.0 mi Calm Calm - N/A   Mostly Cloudy
3:15 PM 60.8 °F 53.2 °F 76% 30.04 in 7.0 mi Calm Calm - N/A Rain Rain
3:55 PM 59.4 °F 54.3 °F 83% 30.03 in 10.0 mi Calm Calm - 0.03 in Rain Light Rain
4:15 PM 59.0 °F 55.2 °F 87% 30.02 in 7.0 mi Calm Calm - 0.01 in Rain Light Rain
4:35 PM 59.4 °F 55.2 °F 86% 30.02 in 10.0 mi Calm Calm - 0.01 in   Overcast
4:55 PM 59.4 °F 55.9 °F 88% 30.01 in 10.0 mi Calm Calm - 0.02 in   Overcast
5:15 PM 59.2 °F 57.0 °F 93% 30.01 in 10.0 mi Calm Calm - N/A   Overcast
5:35 PM 59.4 °F 56.5 °F 90% 30.01 in 10.0 mi Calm Calm - N/A   Overcast
5:55 PM 59.2 °F 56.8 °F 92% 30.02 in 10.0 mi Calm Calm - N/A   Overcast
6:15 PM 59.0 °F 56.5 °F 91% 30.01 in 10.0 mi Calm Calm - N/A   Overcast
6:35 PM 59.0 °F 57.4 °F 94% 30.01 in 10.0 mi Calm Calm - N/A   Overcast
6:55 PM 59.0 °F 57.4 °F 94% 30.01 in 10.0 mi Calm Calm - N/A   Overcast
7:15 PM 59.0 °F 56.7 °F 92% 30.01 in 10.0 mi Calm Calm - N/A   Overcast
7:55 PM 58.1 °F 57.9 °F 99% 30.01 in 10.0 mi Calm Calm - N/A Rain Light Rain
8:15 PM 58.5 °F 57.6 °F 97% 30.01 in 10.0 mi Calm Calm - N/A   Overcast
8:35 PM 58.6 °F 57.9 °F 97% 30.02 in 10.0 mi Calm Calm - N/A   Overcast
8:55 PM 58.3 °F 57.9 °F 99% 30.02 in 10.0 mi Calm Calm - N/A   Overcast
9:15 PM 58.1 °F 58.1 °F 100% 30.01 in 10.0 mi Calm Calm - N/A   Overcast
9:35 PM 58.3 °F 58.1 °F 99% 30.02 in 10.0 mi Calm Calm - N/A   Overcast
10:15 PM 58.3 °F 58.1 °F 99% 30.01 in 7.0 mi Calm Calm - N/A   Overcast
10:35 PM 58.1 °F 57.6 °F 98% 30.01 in 10.0 mi Calm Calm - N/A   Overcast
10:55 PM 58.3 °F 58.1 °F 99% 30.00 in 10.0 mi Calm Calm - N/A   Overcast
11:15 PM 58.5 °F 57.7 °F 97% 30.01 in 10.0 mi Calm Calm - N/A   Overcast
11:35 PM 58.1 °F 57.7 °F 99% 30.01 in 10.0 mi Calm Calm - N/A   Overcast
11:55 PM 58.1 °F 58.1 °F 100% 30.01 in 10.0 mi Calm Calm - N/A   Overcast